Location: Cortada de Papelón
(10.0378°N, 66.9528°W)
Time: 10:29:44
(UTC+00:00)

USA 234 - Pass Details

Date: 13 June 2024
Orbit: 1100 x 1107 km, 123.0° (Epoch: 08 July)

Event Time Altitude Azimuth Distance (km) Brightness Sun altitude
Rises 23:16:55 0° 36° (NE) 3,904 6.0 -7.0°
Reaches altitude 10° 23:19:23 10° 36° (NE) 2,947 5.4 -7.6°
Maximum altitude 23:25:54 89° 305° (NW) 1,101 3.3 -9.0°
Drops below altitude 10° 23:32:26 10° 218° (SW) 2,949 5.7 -10.5°
Sets 23:34:54 0° 217° (SW) 3,908 6.3 -11.0°
